Location: Trondheim
(63.4170°N, 10.4170°E)
Time: 16:55:27
(UTC+01:00)

Iridium 82 - Visible Passes

Search period start: 23 November 2014 00:00
Search period end: 03 December 2014 00:00
Orbit: 776 x 779 km, 86.4° (Epoch: 22 November)

Date Brightness Start Highest point End Pass type
(mag) Time Alt. Az. Time Alt. Az. Time Alt. Az.
25 Nov 7.8 08:04:33 10° NNE 08:06:46 13° NE 08:08:58 10° ENE visible
28 Nov 7.8 08:04:20 10° NNE 08:07:15 15° NE 08:10:09 10° E visible
29 Nov 7.9 07:31:29 10° NNE 07:33:05 11° NE 07:34:40 10° ENE visible
01 Dec 7.7 08:04:14 10° N 08:07:42 18° NE 08:11:09 10° E visible
02 Dec 7.9 07:31:06 10° NNE 07:33:35 13° NE 07:36:03 10° ENE visible
